EW4538 Weather Reports


time (UTC)temp
F
wind
direction
speed
knots
gust
knots
rain 1hr
in
rain 24hr
in
rain mn
in
humidity
%
barometer
mb
20260831133304 79 191 2.6 8.7 0.00 0.00 0.00 78 1015.9
20260831131804 78 153 2.6 5.2 0.00 0.00 0.00 78 1015.7
20260831131304 78 163 2.6 5.2 0.00 0.00 0.00 78 1015.7
20260831130804 77 149 1.7 7.8 0.00 0.00 0.00 78 1015.7
20260831130305 77 143 1.7 5.2 0.00 0.00 0.00 79 1015.7
20260831123805 76 159 1.7 4.3 0.00 0.00 0.00 79 1015.5
20260831123304 76 159 2.6 5.2 0.00 0.00 0.00 79 1015.5
20260831121805 76 160 2.6 7.0 0.00 0.00 0.00 79 1015.3
20260831121304 76 158 2.6 7.0 0.00 0.00 0.00 79 1015.3
20260831120804 76 152 3.5 7.0 0.00 0.00 0.00 79 1015.3
20260831120304 76 160 3.5 7.0 0.00 0.00 0.00 79 1015.3
20260831114805 76 155 2.6 4.3 0.00 0.00 0.00 79 1015.2
20260831114304 76 147 2.6 4.3 0.00 0.00 0.00 79 1015.2
20260831113805 76 151 2.6 5.2 0.00 0.00 0.00 79 1015.3
20260831113305 76 155 1.7 5.2 0.00 0.00 0.00 79 1015.3
20260831111804 76 160 1.7 5.2 0.00 0.00 0.00 78 1015.2
20260831111305 76 158 2.6 5.2 0.00 0.00 0.00 78 1015.2
20260831110805 76 158 3.5 7.0 0.00 0.00 0.00 78 1015.1
20260831110305 76 160 4.3 7.0 0.00 0.00 0.00 78 1015.1
20260831104804 77 157 2.6 5.2 0.00 0.00 0.00 78 1015.2
20260831104305 77 163 3.5 7.8 0.00 0.00 0.00 78 1015.2
20260831103804 77 158 2.6 7.0 0.00 0.00 0.00 78 1015.1
20260831101804 77 181 1.7 5.2 0.00 0.00 0.00 78 1015.2
20260831100304 77 160 4.3 7.0 0.00 0.00 0.00 78 1015.2
20260831094805 77 160 2.6 7.0 0.00 0.00 0.00 78 1015.2
20260831094304 77 157 2.6 7.0 0.00 0.00 0.00 77 1015.2
20260831093804 77 172 2.6 5.2 0.00 0.00 0.00 77 1015.2
20260831093304 77 173 1.7 7.0 0.00 0.00 0.00 77 1015.2
20260831091804 77 159 4.3 7.8 0.00 0.00 0.00 77 1015.1
20260831091304 77 168 4.3 8.7 0.00 0.00 0.00 77 1015.1
20260831090804 77 170 6.1 12.2 0.00 0.00 0.00 77 1015.1
20260831090304 77 140 2.6 8.7 0.00 0.00 0.00 76 1015.0
20260831084304 78 164 4.3 7.8 0.00 0.00 0.00 75 1015.1
20260831083804 78 163 4.3 8.7 0.00 0.00 0.00 75 1015.1
20260831083304 78 156 5.2 11.3 0.00 0.00 0.00 75 1015.1
20260831081804 78 159 6.1 11.3 0.00 0.00 0.00 74 1015.1
20260831081304 78 178 5.2 8.7 0.00 0.00 0.00 74 1015.1
20260831080804 78 164 6.1 8.7 0.00 0.00 0.00 73 1015.1
20260831074804 79 164 6.1 10.4 0.00 0.00 0.00 72 1015.1
20260831074304 79 171 6.1 10.4 0.00 0.00 0.00 72 1015.1
20260831073804 79 164 4.3 10.4 0.00 0.00 0.00 72 1015.1
20260831073304 79 161 5.2 13.9 0.00 0.00 0.00 71 1015.2
20260831071805 80 163 6.1 13.9 0.00 0.00 0.00 70 1015.2
20260831071306 80 174 4.3 10.4 0.00 0.00 0.00 70 1015.2
20260831070304 80 166 6.1 13.9 0.00 0.00 0.00 69 1015.1
20260831064805 81 164 6.1 13.0 0.00 0.00 0.00 68 1015.2
20260831064305 81 152 5.2 10.4 0.00 0.00 0.00 67 1015.3
20260831063804 81 161 6.1 12.2 0.00 0.00 0.00 67 1015.3
20260831063304 81 169 8.7 13.0 0.00 0.00 0.00 67 1015.2
20260831061804 82 153 6.1 12.2 0.00 0.00 0.00 68 1015.2
20260831061304 82 148 6.1 10.4 0.00 0.00 0.00 67 1015.1
20260831060304 82 165 7.0 14.8 0.00 0.00 0.00 67 1015.0
20260831054304 83 169 6.1 13.0 0.00 0.00 0.00 66 1015.0
20260831053804 83 172 6.1 11.3 0.00 0.00 0.00 66 1014.9
20260831051804 83 163 5.2 10.4 0.00 0.00 0.00 65 1014.7
20260831051304 84 168 5.2 12.2 0.00 0.00 0.00 64 1014.7
20260831050804 84 165 6.1 12.2 0.00 0.00 0.00 64 1014.7
20260831050304 84 173 7.8 13.9 0.00 0.00 0.00 63 1014.7
20260831044804 84 166 7.0 15.6 0.00 0.00 0.00 62 1014.6
20260831043804 85 159 9.6 14.8 0.00 0.00 0.00 62 1014.5
20260831041804 85 167 13.0 15.6 0.00 0.00 0.00 60 1014.5
20260831041305 86 157 8.7 17.4 0.00 0.00 0.00 59 1014.4
20260831034804 86 156 11.3 18.2 0.00 0.00 0.00 56 1014.3
20260831034305 86 160 10.4 15.6 0.00 0.00 0.00 56 1014.2
20260831033804 87 159 10.4 17.4 0.00 0.00 0.00 56 1014.1
20260831033304 87 148 8.7 15.6 0.00 0.00 0.00 55 1014.1
20260831031804 87 154 10.4 14.8 0.00 0.00 0.00 54 1013.9
20260831031305 87 163 7.0 15.6 0.00 0.00 0.00 54 1013.8
20260831030804 88 148 8.7 14.8 0.00 0.00 0.00 53 1013.8
20260831030305 88 162 9.6 15.6 0.00 0.00 0.00 53 1013.7
20260831024304 89 151 12.2 15.6 0.00 0.00 0.00 50 1013.3
20260831023804 89 155 11.3 20.9 0.00 0.00 0.00 50 1013.2
20260831020804 89 140 2.6 4.3 0.00 0.00 0.00 44 1012.7
20260831020304 89 135 3.5 7.8 0.00 0.00 0.00 43 1012.6
20260831014804 90 130 2.6 7.0 0.00 0.00 0.00 43 1012.5
20260831014304 90 129 3.5 7.8 0.00 0.00 0.00 43 1012.4
20260831013804 90 151 2.6 4.3 0.00 0.00 0.00 43 1012.3
20260831013304 90 153 1.7 7.8 0.00 0.00 0.00 43 1012.3
20260831011804 91 151 4.3 7.0 0.00 0.00 0.00 42 1012.1
20260831011304 91 130 4.3 7.8 0.00 0.00 0.00 41 1012.1
20260831010804 92 143 4.3 8.7 0.00 0.00 0.00 41 1012.1
20260831010304 92 155 6.1 13.0 0.00 0.00 0.00 41 1012.1
20260831004804 92 154 7.8 13.9 0.00 0.00 0.00 40 1012.1
20260831004304 92 154 4.3 7.8 0.00 0.00 0.00 39 1012.1
20260831003804 93 167 2.6 5.2 0.00 0.00 0.00 39 1012.0
20260831003304 93 157 1.7 7.0 0.00 0.00 0.00 39 1012.0
20260831001804 93 144 0.9 2.6 0.00 0.00 0.00 38 1012.0
20260831001304 93 141 5.2 10.4 0.00 0.00 0.00 38 1012.0
20260831000804 94 166 4.3 7.8 0.00 0.00 0.00 38 1011.9
20260831000305 94 160 2.6 8.7 0.00 0.00 0.00 38 1012.0
20260830234804 94 155 4.3 8.7 0.00 0.00 0.00 37 1012.0
20260830234304 94 147 7.8 13.9 0.00 0.00 0.00 37 1012.0
20260830233805 94 153 6.1 11.3 0.00 0.00 0.00 36 1012.1
20260830233305 94 151 6.1 13.0 0.00 0.00 0.00 36 1012.1
20260830231804 94 129 7.8 13.0 0.00 0.00 0.00 36 1012.1
20260830231304 95 154 8.7 15.6 0.00 0.00 0.00 36 1012.1
20260830230804 95 160 6.1 13.9 0.00 0.00 0.00 35 1012.1
20260830230304 95 160 6.1 13.9 0.00 0.00 0.00 35 1012.1
20260830224805 95 165 6.1 15.6 0.00 0.00 0.00 37 1012.2
20260830224304 95 146 5.2 12.2 0.00 0.00 0.00 36 1012.3
20260830223304 95 159 5.2 14.8 0.00 0.00 0.00 35 1012.3
20260830221804 95 118 6.1 12.2 0.00 0.00 0.00 36 1012.3
20260830221304 95 153 9.6 13.0 0.00 0.00 0.00 36 1012.4
20260830220804 95 153 7.8 14.8 0.00 0.00 0.00 37 1012.4
20260830220304 95 144 9.6 15.6 0.00 0.00 0.00 38 1012.3
20260830214304 95 185 5.2 13.0 0.00 0.00 0.00 38 1012.5
20260830213804 95 177 7.8 18.2 0.00 0.00 0.00 38 1012.5
20260830213305 95 188 6.1 15.6 0.00 0.00 0.00 39 1012.6
20260830211304 94 134 7.8 14.8 0.00 0.00 0.00 40 1013.0
20260830210804 94 158 7.0 21.7 0.00 0.00 0.00 39 1013.1
20260830210304 94 158 4.3 18.2 0.00 0.00 0.00 40 1013.1
20260830204804 94 148 11.3 20.9 0.00 0.00 0.00 41 1013.4
20260830203804 94 143 9.6 13.0 0.00 0.00 0.00 41 1013.5
20260830203304 95 155 10.4 15.6 0.00 0.00 0.00 40 1013.5
20260830201804 94 178 3.5 11.3 0.00 0.00 0.00 42 1013.6
20260830200804 94 138 10.4 17.4 0.00 0.00 0.00 42 1013.8
20260830200304 94 139 10.4 15.6 0.00 0.00 0.00 43 1013.9
20260830194804 94 163 11.3 22.6 0.00 0.00 0.00 44 1014.2
20260830194304 93 157 6.1 17.4 0.00 0.00 0.00 44 1014.2
20260830193804 94 162 5.2 13.0 0.00 0.00 0.00 43 1014.3
20260830193304 94 154 9.6 20.0 0.00 0.00 0.00 44 1014.4
20260830191804 93 145 11.3 17.4 0.00 0.00 0.00 44 1014.5
20260830191305 93 143 12.2 15.6 0.00 0.00 0.00 44 1014.6
20260830190804 94 163 10.4 14.8 0.00 0.00 0.00 44 1014.7
20260830190304 94 130 5.2 13.9 0.00 0.00 0.00 45 1014.8
20260830184804 92 171 6.1 13.0 0.00 0.00 0.00 46 1015.0
20260830184304 92 173 9.6 13.0 0.00 0.00 0.00 47 1015.1
20260830183804 92 161 7.8 17.4 0.00 0.00 0.00 47 1015.3
20260830181804 92 158 8.7 13.0 0.00 0.00 0.00 49 1015.5
20260830180804 91 167 7.8 15.6 0.00 0.00 0.00 50 1015.7
20260830180304 90 163 5.2 14.8 0.00 0.00 0.00 52 1015.9
20260830174805 92 170 4.3 11.3 0.00 0.00 0.00 50 1016.2
20260830174304 91 162 6.1 14.8 0.00 0.00 0.00 50 1016.2
20260830173804 91 174 6.1 8.7 0.00 0.00 0.00 51 1016.3
20260830173304 90 117 2.6 14.8 0.00 0.00 0.00 52 1016.4
20260830171804 90 143 8.7 12.2 0.00 0.00 0.00 53 1016.6
20260830171304 90 119 5.2 11.3 0.00 0.00 0.00 53 1016.7
20260830170804 89 127 4.3 8.7 0.00 0.00 0.00 53 1016.8
20260830164804 88 172 2.6 7.0 0.00 0.00 0.00 54 1016.8
20260830163804 88 117 7.0 12.2 0.00 0.00 0.00 54 1016.9
20260830163304 88 176 7.8 12.2 0.00 0.00 0.00 55 1017.0
20260830161804 87 199 3.5 12.2 0.00 0.00 0.00 57 1017.0
20260830161304 87 152 5.2 13.0 0.00 0.00 0.00 57 1017.0
20260830160804 87 172 5.2 13.0 0.00 0.00 0.00 57 1017.0
20260830160304 87 172 7.8 15.6 0.00 0.00 0.00 57 1017.0
20260830154304 85 161 7.8 12.2 0.00 0.00 0.00 60 1016.8
20260830153804 86 152 7.0 13.0 0.00 0.00 0.00 63 1016.8
20260830153304 85 184 5.2 13.0 0.00 0.00 0.00 64 1016.8
20260830151804 84 163 4.3 10.4 0.00 0.00 0.00 67 1016.7
20260830151303 84 162 6.1 11.3 0.00 0.00 0.00 68 1016.8
20260830150804 84 178 4.3 10.4 0.00 0.00 0.00 68 1016.8
20260830150304 83 183 3.5 12.2 0.00 0.00 0.00 69 1016.8
20260830144805 82 173 5.2 8.7 0.00 0.00 0.00 70 1016.7
20260830144304 82 161 4.3 7.0 0.00 0.00 0.00 71 1016.7
20260830143804 81 176 4.3 10.4 0.00 0.00 0.00 71 1016.8
20260830143304 81 172 5.2 11.3 0.00 0.00 0.00 72 1016.8
20260830141804 80 217 2.6 7.0 0.00 0.00 0.00 73 1016.9
20260830141304 80 178 1.7 2.6 0.00 0.00 0.00 74 1016.8
20260830140804 80 177 4.3 8.7 0.00 0.00 0.00 74 1016.7
20260830140304 80 182 2.6 7.8 0.00 0.00 0.00 74 1016.6
20260830134804 79 180 5.2 8.7 0.00 0.00 0.00 75 1016.6
20260830133803 78 149 5.2 8.7 0.00 0.00 0.00 76 1016.6